Starlink 31280

operational
NORAD ID: 58843 Int'l Des: 2024-017 Owner: SPXS Country: US Constellation: starlink
LEOCIRCULAR

关于 Starlink 31280

正在加载描述...

实时位置

正在加载3D地球...

即将过境

高度历史

Altitude vs Time

uPlot chart will show altitude changes over time

两行轨道根数

1 58843U 24017T 25305.08318590 -.00000003 00000-0 12026-4 0 9990
2 58843 53.1602 81.8474 0000919 98.3242 261.7863 15.30189184100369
Epoch: Nov 1, 2025 • Age: 39 hours

当前状态

高度 477.3 km
速度 7.63 km/s
星下点 33.76°N, 161.23°E
发射日期 Jan 24, 2024
运行时间 1.7 years
类型 internet

技术详情

分类 Payload
质量 730.00 kg
干质量 700.00 kg
总质量 730.00 kg
长度 0.30 m
直径 4.10 m
跨度 29.00 m
形状 Box + pan
制造商 SPXS
平台类型 Starlink V2M
阶段状态 In Orbit
所有者/国家 SPXS/US

大型星座

Loading constellations...